Location: Unspecified
(0.0000°N, 0.0000°E)
Time: 08:35:50
(UTC+00:00)

Explorer 11/Cluster Stage 4 - Pass Details

Date: 19 July 2020
Orbit: 467 x 1259 km, 28.8° (Epoch: 03 August)

Event Time Altitude Azimuth Distance (km) Brightness Sun altitude
Rises 19:04:39 0° 257° (WSW) 4,151 11.3 -13.6°
Reaches altitude 10° 19:09:03 10° 236° (SW) 3,228 10.2 -14.6°
Maximum altitude 19:13:32 16° 203° (SSW) 2,821 9.4 -15.7°
Drops below altitude 10° 19:17:58 10° 169° (S) 3,176 9.4 -16.7°
Enters shadow 19:19:26 - 161° (SSE) 3,431 9.5 -17.0°
Sets 19:22:16 0° 148° (SSE) 4,048 - -17.7°
